Tracking 29892 objects as of 21-Nov-2024
HD Live streaming from Space Station
objects crossing your sky now

STARLINK-3723

Track STARLINK-3723 now!
10-day predictions
STARLINK-3723 is classified as:


NORAD ID: 52138
Int'l Code: 2022-029BC
Perigee: 545.9 km
Apogee: 547.9 km
Inclination: 53.2 °
Period: 95.4 minutes
Semi major axis: 6917 km
RCS: Unknown
Launch date: March 19, 2022
Source: United States (US)
Launch site: AIR FORCE EASTERN TEST RANGE (AFETR)
Your satellite tracking list
Your tracking list is empty




NASA's NSSDC Master Catalog

Two Line Element Set (TLE):
1 52138U 22029BC  24325.18278316  .00001619  00000-0  11982-3 0  9997
2 52138  53.2162  39.2610 0001407  84.5183 275.5969 15.08839086149300
Source of the keplerian elements: AFSPC